This is the latest recevied weather packets stored in our database for station/object KE0FIN. If no packets are shown the sender has not sent any weather packets the latest 10 day(s).
| Time | Temp. | Humidity | Pressure | Rain* | Wind** | Luminosity | Snow |
|---|---|---|---|---|---|---|---|
| 1777914160 | 25° C | 43% | 1055.6 hPa | 0 mm | - | 95 W/m² | - |
| 1777913856 | 24.44° C | 43% | 1055.7 hPa | 0 mm | - | 76 W/m² | - |
| 1777913553 | 24.44° C | 44% | 1055.7 hPa | 0 mm | - | 63 W/m² | - |
| 1777913249 | 23.89° C | 45% | 1055.5 hPa | 0 mm | - | 62 W/m² | - |
| 1777912947 | 23.89° C | 46% | 1055.8 hPa | 0 mm | - | 82 W/m² | - |
| 1777912642 | 23.89° C | 46% | 1055.8 hPa | 0 mm | - | 75 W/m² | - |
| 1777912338 | 23.89° C | 46% | 1055.8 hPa | 0 mm | - | 60 W/m² | - |
| 1777912034 | 23.33° C | 46% | 1055.7 hPa | 0 mm | - | 212 W/m² | - |
| 1777911730 | 23.89° C | 46% | 1055.3 hPa | 0 mm | - | 55 W/m² | - |
| 1777911428 | 23.89° C | 46% | 1055.6 hPa | 0 mm | - | 144 W/m² | - |
| 1777911125 | 23.33° C | 47% | 1055.5 hPa | 0 mm | - | 77 W/m² | - |
| 1777910822 | 23.33° C | 47% | 1055.5 hPa | 0 mm | - | 81 W/m² | - |
| 1777910519 | 22.78° C | 50% | 1055.6 hPa | 0 mm | - | 102 W/m² | - |
| 1777910215 | 21.67° C | 50% | 1055.6 hPa | 0 mm | - | 117 W/m² | - |
| 1777909912 | 21.67° C | 50% | 1055.6 hPa | 0 mm | - | 130 W/m² | - |
| 1777909609 | 22.22° C | 49% | 1055.7 hPa | 0 mm | - | 138 W/m² | - |
| 1777909307 | 22.22° C | 50% | 1055.8 hPa | 0 mm | - | 149 W/m² | - |
| 1777909004 | 21.67° C | 50% | 1055.7 hPa | 0 mm | - | 155 W/m² | - |
| 1777908702 | 21.67° C | 50% | 1055.4 hPa | 0 mm | - | 136 W/m² | - |
| 1777908399 | 21.67° C | 51% | 1055.4 hPa | 0 mm | - | 124 W/m² | - |
| 1777908095 | 21.67° C | 50% | 1055.5 hPa | 0 mm | - | 119 W/m² | - |
| 1777907791 | 21.67° C | 50% | 1055.5 hPa | 0 mm | - | 121 W/m² | - |
| 1777907486 | 21.67° C | 51% | 1055.4 hPa | 0 mm | - | 112 W/m² | - |
| 1777907184 | 21.11° C | 51% | 1055.2 hPa | 0 mm | - | 412 W/m² | - |
| 1777906881 | 21.11° C | 54% | 1055.4 hPa | 0 mm | - | 133 W/m² | - |
* Rain latest hour (hover to see other rain measurements)
** Current wind speed in m/s (hover to see current wind gust speed)